Time,TemperatureF,DewpointF,PressureIn,WindDirection,WindDirectionDegrees,WindSpeedMPH,WindSpeedGustMPH,Humidity,HourlyPrecipIn,Conditions,Clouds,dailyrainin,SoftwareType,DateUTC
2013-01-05 00:00:00,33.4,24.3,29.92,West,268,1.0,8.0,69,0.00,,SKC,0.00,VWS V14.01,2013-01-05 05:00:00,
2013-01-05 00:01:00,33.4,24.3,29.92,West,277,6.0,8.0,69,0.00,,SKC,0.00,VWS V14.01,2013-01-05 05:01:00,
2013-01-05 00:07:00,34.0,24.6,29.92,West,270,1.0,1.0,68,0.00,,SKC,0.00,VWS V14.01,2013-01-05 05:07:00,
2013-01-05 00:09:00,34.1,24.3,29.92,South,182,3.0,6.0,67,0.00,,SKC,0.00,VWS V14.01,2013-01-05 05:09:00,
2013-01-05 00:10:00,34.3,24.5,29.92,SW,234,2.0,6.0,67,0.00,,SKC,0.00,VWS V14.01,2013-01-05 05:10:00,
2013-01-05 00:14:00,34.4,24.6,29.92,SSE,156,0.0,6.0,67,0.00,,SKC,0.00,VWS V14.01,2013-01-05 05:14:00,
2013-01-05 00:19:00,34.7,24.5,29.92,WNW,296,7.0,7.0,66,0.00,,SKC,0.00,VWS V14.01,2013-01-05 05:19:00,
2013-01-05 00:20:00,34.7,24.5,29.93,WSW,242,5.0,7.0,66,0.00,,SKC,0.00,VWS V14.01,2013-01-05 05:20:00,
2013-01-05 00:24:00,34.7,24.5,29.92,WNW,288,2.0,9.0,66,0.00,,SKC,0.00,VWS V14.01,2013-01-05 05:24:00,
2013-01-05 00:29:00,34.9,24.3,29.93,SW,223,0.0,9.0,65,0.00,,SKC,0.00,VWS V14.01,2013-01-05 05:29:00,
2013-01-05 00:30:00,34.9,24.3,29.93,West,276,1.0,9.0,65,0.00,,SKC,0.00,VWS V14.01,2013-01-05 05:30:00,
2013-01-05 00:34:00,34.9,24.3,29.93,WNW,284,1.0,6.0,65,0.00,,SKC,0.00,VWS V14.01,2013-01-05 05:34:00,
2013-01-05 00:39:00,34.9,24.3,29.93,West,263,2.0,8.0,65,0.00,,SKC,0.00,VWS V14.01,2013-01-05 05:39:00,
2013-01-05 00:40:00,34.9,24.3,29.93,West,265,0.0,8.0,65,0.00,,SKC,0.00,VWS V14.01,2013-01-05 05:40:00,
2013-01-05 00:44:00,34.9,24.3,29.93,SW,215,0.0,7.0,65,0.00,,SKC,0.00,VWS V14.01,2013-01-05 05:44:00,
2013-01-05 00:50:00,34.9,24.3,29.94,WSW,253,2.0,8.0,65,0.00,,SKC,0.00,VWS V14.01,2013-01-05 05:50:00,
2013-01-05 00:55:00,34.9,24.3,29.93,WNW,288,0.0,6.0,65,0.00,,SKC,0.00,VWS V14.01,2013-01-05 05:55:00,
2013-01-05 01:00:00,34.9,24.3,29.94,ESE,111,4.0,8.0,65,0.00,,SKC,0.00,VWS V14.01,2013-01-05 06:00:00,
2013-01-05 01:05:00,34.7,24.1,29.94,West,265,9.0,9.0,65,0.00,,SKC,0.00,VWS V14.01,2013-01-05 06:05:00,
2013-01-05 01:10:00,34.7,24.1,29.94,WSW,248,0.0,9.0,65,0.00,,SKC,0.00,VWS V14.01,2013-01-05 06:10:00,
2013-01-05 01:15:00,34.7,24.1,29.94,WSW,254,0.0,4.0,65,0.00,,SKC,0.00,VWS V14.01,2013-01-05 06:15:00,
2013-01-05 01:20:00,34.6,24.1,29.94,West,274,1.0,5.0,65,0.00,,SKC,0.00,VWS V14.01,2013-01-05 06:20:00,
2013-01-05 01:30:00,34.4,24.2,29.95,West,270,2.0,7.0,66,0.00,,SKC,0.00,VWS V14.01,2013-01-05 06:30:00,
2013-01-05 01:40:00,34.3,24.1,29.95,West,270,2.0,10.0,66,0.00,,SKC,0.00,VWS V14.01,2013-01-05 06:40:00,
2013-01-05 01:50:00,34.1,23.6,29.96,West,270,3.0,10.0,65,0.00,,SKC,0.00,VWS V14.01,2013-01-05 06:50:00,
2013-01-05 02:00:00,34.1,23.6,29.96,WSW,248,2.0,11.0,65,0.00,,SKC,0.00,VWS V14.01,2013-01-05 07:00:00,
2013-01-05 02:10:00,34.1,23.6,29.97,West,270,2.0,7.0,65,0.00,,SKC,0.00,VWS V14.01,2013-01-05 07:10:00,
2013-01-05 02:20:00,34.0,23.5,29.97,WSW,248,2.0,7.0,65,0.00,,SKC,0.00,VWS V14.01,2013-01-05 07:20:00,
2013-01-05 02:30:00,34.0,23.9,29.98,WSW,248,1.0,5.0,66,0.00,,SKC,0.00,VWS V14.01,2013-01-05 07:30:00,
2013-01-05 02:40:00,33.8,23.7,29.98,WSW,248,2.0,5.0,66,0.00,,SKC,0.00,VWS V14.01,2013-01-05 07:40:00,
2013-01-05 02:50:00,33.8,23.3,29.98,West,270,2.0,9.0,65,0.00,,SKC,0.00,VWS V14.01,2013-01-05 07:50:00,
2013-01-05 03:00:00,33.7,23.2,29.99,West,270,1.0,6.0,65,0.00,,SKC,0.00,VWS V14.01,2013-01-05 08:00:00,
2013-01-05 03:10:00,33.7,23.2,29.99,WSW,248,2.0,14.0,65,0.00,,SKC,0.00,VWS V14.01,2013-01-05 08:10:00,
2013-01-05 03:20:00,33.7,23.2,30.00,WSW,248,1.0,7.0,65,0.00,,SKC,0.00,VWS V14.01,2013-01-05 08:20:00,
2013-01-05 03:30:00,33.5,23.4,30.00,West,270,1.0,5.0,66,0.00,,SKC,0.00,VWS V14.01,2013-01-05 08:30:00,
2013-01-05 03:40:00,33.4,23.3,30.01,West,270,1.0,9.0,66,0.00,,SKC,0.00,VWS V14.01,2013-01-05 08:40:00,
2013-01-05 03:50:00,33.4,23.3,30.02,WSW,248,1.0,4.0,66,0.00,,SKC,0.00,VWS V14.01,2013-01-05 08:50:00,
2013-01-05 04:00:00,33.2,23.5,30.02,West,270,1.0,5.0,67,0.00,,SKC,0.00,VWS V14.01,2013-01-05 09:00:00,
2013-01-05 04:10:00,32.9,23.2,30.02,West,270,0.0,4.0,67,0.00,,SKC,0.00,VWS V14.01,2013-01-05 09:10:00,
2013-01-05 04:20:00,32.8,23.4,30.03,West,270,1.0,5.0,68,0.00,,SKC,0.00,VWS V14.01,2013-01-05 09:20:00,
2013-01-05 04:30:00,32.7,23.3,30.03,West,270,0.0,4.0,68,0.00,,SKC,0.00,VWS V14.01,2013-01-05 09:30:00,
2013-01-05 04:40:00,32.5,23.5,30.02,West,270,1.0,5.0,69,0.00,,SKC,0.00,VWS V14.01,2013-01-05 09:40:00,
2013-01-05 04:50:00,32.4,23.4,30.03,West,270,1.0,4.0,69,0.00,,SKC,0.00,VWS V14.01,2013-01-05 09:50:00,
2013-01-05 05:00:00,32.4,23.4,30.03,West,270,0.0,4.0,69,0.00,,SKC,0.00,VWS V14.01,2013-01-05 10:00:00,
2013-01-05 05:10:00,32.2,23.2,30.03,West,270,0.0,3.0,69,0.00,,SKC,0.00,VWS V14.01,2013-01-05 10:10:00,
2013-01-05 05:20:00,31.9,23.2,30.04,West,270,0.0,2.0,70,0.00,,SKC,0.00,VWS V14.01,2013-01-05 10:20:00,
2013-01-05 05:30:00,31.6,23.0,30.04,West,270,0.0,2.0,70,0.00,,SKC,0.00,VWS V14.01,2013-01-05 10:30:00,
2013-01-05 05:40:00,31.3,23.0,30.05,West,270,0.0,4.0,71,0.00,,SKC,0.00,VWS V14.01,2013-01-05 10:40:00,
2013-01-05 05:50:00,31.2,23.2,30.06,West,270,0.0,2.0,72,0.00,,SKC,0.00,VWS V14.01,2013-01-05 10:50:00,
2013-01-05 06:00:00,31.0,23.4,30.07,West,270,0.0,2.0,73,0.00,,SKC,0.00,VWS V14.01,2013-01-05 11:00:00,
2013-01-05 06:10:00,31.0,23.4,30.07,West,270,0.0,0.0,73,0.00,,SKC,0.00,VWS V14.01,2013-01-05 11:10:00,
2013-01-05 06:20:00,30.9,23.3,30.08,West,270,0.0,1.0,73,0.00,,SKC,0.00,VWS V14.01,2013-01-05 11:20:00,
2013-01-05 06:30:00,30.6,23.3,30.09,West,270,0.0,1.0,74,0.00,,SKC,0.00,VWS V14.01,2013-01-05 11:30:00,
2013-01-05 06:40:00,30.6,23.6,30.09,West,270,0.0,2.0,75,0.00,,SKC,0.00,VWS V14.01,2013-01-05 11:40:00,
2013-01-05 06:50:00,30.6,23.6,30.10,West,270,0.0,4.0,75,0.00,,SKC,0.00,VWS V14.01,2013-01-05 11:50:00,
2013-01-05 07:00:00,30.6,23.6,30.11,West,270,1.0,5.0,75,0.00,,SKC,0.00,VWS V14.01,2013-01-05 12:00:00,
2013-01-05 07:10:00,30.6,23.6,30.11,West,270,1.0,10.0,75,0.00,,SKC,0.00,VWS V14.01,2013-01-05 12:10:00,
2013-01-05 07:20:00,30.6,23.3,30.13,WNW,292,1.0,5.0,74,0.00,,SKC,0.00,VWS V14.01,2013-01-05 12:20:00,
2013-01-05 07:30:00,30.6,23.0,30.13,WNW,292,1.0,5.0,73,0.00,,SKC,0.00,VWS V14.01,2013-01-05 12:30:00,
2013-01-05 07:40:00,30.6,22.7,30.12,WNW,292,1.0,3.0,72,0.00,,SKC,0.00,VWS V14.01,2013-01-05 12:40:00,
2013-01-05 07:50:00,30.6,22.7,30.13,WNW,292,1.0,5.0,72,0.00,,SKC,0.00,VWS V14.01,2013-01-05 12:50:00,
2013-01-05 08:00:00,30.7,22.8,30.14,WNW,292,1.0,4.0,72,0.00,,SKC,0.00,VWS V14.01,2013-01-05 13:00:00,
2013-01-05 08:10:00,31.0,23.0,30.15,WNW,292,1.0,5.0,72,0.00,,SKC,0.00,VWS V14.01,2013-01-05 13:10:00,
2013-01-05 08:20:00,31.3,23.3,30.15,WNW,292,0.0,3.0,72,0.00,,SKC,0.00,VWS V14.01,2013-01-05 13:20:00,
2013-01-05 08:30:00,31.9,23.6,30.16,WNW,292,1.0,4.0,71,0.00,,SKC,0.00,VWS V14.01,2013-01-05 13:30:00,
2013-01-05 08:40:00,32.4,23.7,30.16,WNW,292,1.0,8.0,70,0.00,,SKC,0.00,VWS V14.01,2013-01-05 13:40:00,
2013-01-05 08:50:00,32.9,23.9,30.17,West,270,1.0,5.0,69,0.00,,SKC,0.00,VWS V14.01,2013-01-05 13:50:00,
2013-01-05 09:00:00,33.5,24.1,30.17,West,270,1.0,6.0,68,0.00,,SKC,0.00,VWS V14.01,2013-01-05 14:00:00,
2013-01-05 09:10:00,34.1,24.7,30.18,West,270,1.0,7.0,68,0.00,,SKC,0.00,VWS V14.01,2013-01-05 14:10:00,
2013-01-05 09:20:00,34.6,24.8,30.18,West,270,1.0,5.0,67,0.00,,SKC,0.00,VWS V14.01,2013-01-05 14:20:00,
2013-01-05 09:30:00,35.0,25.2,30.18,West,270,1.0,6.0,67,0.00,,SKC,0.00,VWS V14.01,2013-01-05 14:30:00,
2013-01-05 09:40:00,35.5,25.6,30.18,West,270,1.0,6.0,67,0.00,,SKC,0.00,VWS V14.01,2013-01-05 14:40:00,
2013-01-05 09:50:00,36.2,26.3,30.18,West,270,1.0,6.0,67,0.00,,SKC,0.00,VWS V14.01,2013-01-05 14:50:00,
2013-01-05 10:00:00,36.9,27.0,30.19,WSW,248,1.0,5.0,67,0.00,,SKC,0.00,VWS V14.01,2013-01-05 15:00:00,
2013-01-05 10:10:00,37.6,27.3,30.19,West,270,1.0,6.0,66,0.00,,SKC,0.00,VWS V14.01,2013-01-05 15:10:00,
2013-01-05 10:20:00,38.2,27.1,30.19,WNW,292,2.0,7.0,64,0.00,,SKC,0.00,VWS V14.01,2013-01-05 15:20:00,
2013-01-05 10:30:00,38.5,27.0,30.19,West,270,2.0,9.0,63,0.00,,SKC,0.00,VWS V14.01,2013-01-05 15:30:00,
2013-01-05 10:40:00,38.8,27.3,30.19,West,270,2.0,6.0,63,0.00,,SKC,0.00,VWS V14.01,2013-01-05 15:40:00,
2013-01-05 10:50:00,39.2,27.3,30.19,WNW,292,2.0,7.0,62,0.00,,SKC,0.00,VWS V14.01,2013-01-05 15:50:00,
2013-01-05 11:19:00,40.6,27.0,30.18,WSW,255,1.0,2.0,58,0.00,,SKC,0.00,VWS V14.01,2013-01-05 16:19:00,
2013-01-05 11:20:00,40.6,27.4,30.18,WSW,246,2.0,4.0,59,0.00,,SKC,0.00,VWS V14.01,2013-01-05 16:20:00,
2013-01-05 11:24:00,40.8,27.2,30.18,WSW,242,2.0,4.0,58,0.00,,SKC,0.00,VWS V14.01,2013-01-05 16:24:00,
2013-01-05 11:29:00,40.9,26.9,30.18,WSW,243,4.0,8.0,57,0.00,,SKC,0.00,VWS V14.01,2013-01-05 16:29:00,
2013-01-05 11:30:00,41.1,27.0,30.18,SW,235,3.0,8.0,57,0.00,,SKC,0.00,VWS V14.01,2013-01-05 16:30:00,
2013-01-05 11:34:00,41.1,27.0,30.18,WSW,254,0.0,6.0,57,0.00,,SKC,0.00,VWS V14.01,2013-01-05 16:34:00,
2013-01-05 11:39:00,41.2,27.1,30.18,West,272,0.0,7.0,57,0.00,,SKC,0.00,VWS V14.01,2013-01-05 16:39:00,
2013-01-05 11:40:00,41.2,27.1,30.18,West,269,4.0,7.0,57,0.00,,SKC,0.00,VWS V14.01,2013-01-05 16:40:00,
2013-01-05 11:44:00,41.2,27.1,30.18,WNW,285,4.0,8.0,57,0.00,,SKC,0.00,VWS V14.01,2013-01-05 16:44:00,
2013-01-05 11:49:00,41.2,27.1,30.17,West,280,1.0,8.0,57,0.00,,SKC,0.00,VWS V14.01,2013-01-05 16:49:00,
2013-01-05 11:50:00,41.2,27.1,30.17,SW,234,4.0,8.0,57,0.00,,SKC,0.00,VWS V14.01,2013-01-05 16:50:00,
2013-01-05 11:54:00,41.3,27.2,30.18,West,263,1.0,7.0,57,0.00,,SKC,0.00,VWS V14.01,2013-01-05 16:54:00,
2013-01-05 12:00:00,41.3,27.2,30.17,SW,217,4.0,7.0,57,0.00,,SKC,0.00,VWS V14.01,2013-01-05 17:00:00,
2013-01-05 12:05:00,41.3,26.8,30.17,WSW,254,7.0,7.0,56,0.00,,SKC,0.00,VWS V14.01,2013-01-05 17:05:00,
2013-01-05 12:10:00,41.3,26.8,30.18,West,275,0.0,10.0,56,0.00,,SKC,0.00,VWS V14.01,2013-01-05 17:10:00,
2013-01-05 12:15:00,41.3,26.8,30.18,WSW,250,2.0,14.0,56,0.00,,SKC,0.00,VWS V14.01,2013-01-05 17:15:00,
2013-01-05 12:20:00,41.2,26.7,30.18,SW,229,3.0,14.0,56,0.00,,SKC,0.00,VWS V14.01,2013-01-05 17:20:00,
2013-01-05 12:25:00,41.3,27.2,30.18,West,270,1.0,6.0,57,0.00,,SKC,0.00,VWS V14.01,2013-01-05 17:25:00,
2013-01-05 12:30:00,41.3,26.8,30.18,SSW,208,2.0,7.0,56,0.00,,SKC,0.00,VWS V14.01,2013-01-05 17:30:00,
2013-01-05 12:35:00,41.3,26.8,30.17,NNW,327,2.0,8.0,56,0.00,,SKC,0.00,VWS V14.01,2013-01-05 17:35:00,
2013-01-05 12:40:00,41.3,26.8,30.17,WSW,257,6.0,12.0,56,0.00,,SKC,0.00,VWS V14.01,2013-01-05 17:40:00,
2013-01-05 12:45:00,41.3,26.8,30.17,WSW,246,3.0,6.0,56,0.00,,SKC,0.00,VWS V14.01,2013-01-05 17:45:00,
2013-01-05 12:50:00,41.3,26.8,30.17,WSW,250,0.0,6.0,56,0.00,,SKC,0.00,VWS V14.01,2013-01-05 17:50:00,
2013-01-05 12:55:00,41.5,27.0,30.17,West,274,0.0,5.0,56,0.00,,SKC,0.00,VWS V14.01,2013-01-05 17:55:00,
2013-01-05 13:00:00,41.6,27.1,30.16,South,181,1.0,6.0,56,0.00,,SKC,0.00,VWS V14.01,2013-01-05 18:00:00,
2013-01-05 13:05:00,41.6,27.1,30.16,SSW,213,2.0,6.0,56,0.00,,SKC,0.00,VWS V14.01,2013-01-05 18:05:00,
2013-01-05 13:10:00,41.6,27.1,30.16,South,190,4.0,9.0,56,0.00,,SKC,0.00,VWS V14.01,2013-01-05 18:10:00,
2013-01-05 13:16:00,41.8,27.3,30.16,West,265,1.0,7.0,56,0.00,,SKC,0.00,VWS V14.01,2013-01-05 18:16:00,
2013-01-05 13:20:00,41.9,27.4,30.16,West,278,1.0,7.0,56,0.00,,SKC,0.00,VWS V14.01,2013-01-05 18:20:00,
2013-01-05 13:21:00,41.9,27.4,30.16,West,278,1.0,7.0,56,0.00,,SKC,0.00,VWS V14.01,2013-01-05 18:21:00,
2013-01-05 13:26:00,41.9,27.4,30.16,WSW,249,0.0,3.0,56,0.00,,SKC,0.00,VWS V14.01,2013-01-05 18:26:00,
2013-01-05 13:30:00,42.3,27.7,30.16,West,265,0.0,7.0,56,0.00,,SKC,0.00,VWS V14.01,2013-01-05 18:30:00,
2013-01-05 13:31:00,42.3,27.7,30.16,West,265,0.0,7.0,56,0.00,,SKC,0.00,VWS V14.01,2013-01-05 18:31:00,
2013-01-05 13:36:00,42.5,27.9,30.15,WSW,257,0.0,4.0,56,0.00,,SKC,0.00,VWS V14.01,2013-01-05 18:36:00,
2013-01-05 13:40:00,42.6,26.2,30.16,SSW,209,2.0,7.0,52,0.00,,SKC,0.00,VWS V14.01,2013-01-05 18:40:00,
2013-01-05 13:41:00,42.6,26.2,30.16,SSW,208,2.0,7.0,52,0.00,,SKC,0.00,VWS V14.01,2013-01-05 18:41:00,
2013-01-05 13:46:00,42.5,26.1,30.17,WSW,250,3.0,7.0,52,0.00,,SKC,0.00,VWS V14.01,2013-01-05 18:46:00,
2013-01-05 13:50:00,42.2,25.4,30.18,NE,36,1.0,7.0,51,0.00,,SKC,0.00,VWS V14.01,2013-01-05 18:50:00,
2013-01-05 13:51:00,42.2,25.4,30.18,NE,36,1.0,7.0,51,0.00,,SKC,0.00,VWS V14.01,2013-01-05 18:51:00,
2013-01-05 13:56:00,42.1,25.8,30.18,West,267,5.0,6.0,52,0.00,,SKC,0.00,VWS V14.01,2013-01-05 18:56:00,
2013-01-05 14:00:00,42.8,25.9,30.17,SSW,212,0.0,6.0,51,0.00,,SKC,0.00,VWS V14.01,2013-01-05 19:00:00,
2013-01-05 14:01:00,42.8,25.9,30.17,SSW,212,0.0,0.0,51,0.00,,SKC,0.00,VWS V14.01,2013-01-05 19:01:00,
2013-01-05 14:06:00,43.5,26.1,30.18,West,279,0.0,4.0,50,0.00,,SKC,0.00,VWS V14.01,2013-01-05 19:06:00,
2013-01-05 14:10:00,43.3,25.4,30.18,West,271,4.0,9.0,49,0.00,,SKC,0.00,VWS V14.01,2013-01-05 19:10:00,
2013-01-05 14:11:00,43.2,25.4,30.18,West,273,4.0,4.0,49,0.00,,SKC,0.00,VWS V14.01,2013-01-05 19:11:00,
2013-01-05 14:16:00,42.9,25.6,30.19,NW,306,2.0,9.0,50,0.00,,SKC,0.00,VWS V14.01,2013-01-05 19:16:00,
2013-01-05 14:20:00,42.8,25.5,30.18,WSW,257,0.0,9.0,50,0.00,,SKC,0.00,VWS V14.01,2013-01-05 19:20:00,
2013-01-05 14:21:00,42.8,25.5,30.18,WSW,257,2.0,2.0,50,0.00,,SKC,0.00,VWS V14.01,2013-01-05 19:21:00,
2013-01-05 14:27:00,42.8,25.5,30.18,NE,51,1.0,4.0,50,0.00,,SKC,0.00,VWS V14.01,2013-01-05 19:27:00,
2013-01-05 14:30:00,42.8,25.5,30.18,SW,229,3.0,5.0,50,0.00,,SKC,0.00,VWS V14.01,2013-01-05 19:30:00,
2013-01-05 14:32:00,42.8,25.9,30.18,SSW,211,0.0,3.0,51,0.00,,SKC,0.00,VWS V14.01,2013-01-05 19:32:00,
2013-01-05 14:37:00,42.6,25.8,30.18,SE,137,0.0,6.0,51,0.00,,SKC,0.00,VWS V14.01,2013-01-05 19:37:00,
2013-01-05 14:40:00,42.8,25.9,30.19,WNW,291,1.0,6.0,51,0.00,,SKC,0.00,VWS V14.01,2013-01-05 19:40:00,
2013-01-05 14:42:00,42.8,25.5,30.19,West,268,0.0,2.0,50,0.00,,SKC,0.00,VWS V14.01,2013-01-05 19:42:00,
2013-01-05 14:48:00,42.6,25.8,30.19,WNW,300,0.0,1.0,51,0.00,,SKC,0.00,VWS V14.01,2013-01-05 19:48:00,
2013-01-05 14:50:00,42.5,25.7,30.19,SE,144,5.0,5.0,51,0.00,,SKC,0.00,VWS V14.01,2013-01-05 19:50:00,
2013-01-05 14:53:00,42.5,25.2,30.19,WSW,250,2.0,5.0,50,0.00,,SKC,0.00,VWS V14.01,2013-01-05 19:53:00,
2013-01-05 14:59:00,42.3,25.5,30.18,NE,53,1.0,6.0,51,0.00,,SKC,0.00,VWS V14.01,2013-01-05 19:59:00,
2013-01-05 15:00:00,42.3,25.5,30.19,NE,53,0.0,6.0,51,0.00,,SKC,0.00,VWS V14.01,2013-01-05 20:00:00,
2013-01-05 15:04:00,42.3,25.5,30.19,West,272,4.0,7.0,51,0.00,,SKC,0.00,VWS V14.01,2013-01-05 20:04:00,
2013-01-05 15:09:00,42.3,25.5,30.19,WSW,254,1.0,7.0,51,0.00,,SKC,0.00,VWS V14.01,2013-01-05 20:09:00,
2013-01-05 15:10:00,42.3,25.5,30.19,West,277,2.0,7.0,51,0.00,,SKC,0.00,VWS V14.01,2013-01-05 20:10:00,
2013-01-05 15:14:00,42.3,25.5,30.19,West,259,2.0,3.0,51,0.00,,SKC,0.00,VWS V14.01,2013-01-05 20:14:00,
2013-01-05 15:19:00,42.2,25.4,30.19,West,277,2.0,7.0,51,0.00,,SKC,0.00,VWS V14.01,2013-01-05 20:19:00,
2013-01-05 15:20:00,42.2,25.4,30.19,WNW,294,2.0,7.0,51,0.00,,SKC,0.00,VWS V14.01,2013-01-05 20:20:00,
2013-01-05 15:24:00,42.1,25.3,30.19,West,262,0.0,4.0,51,0.00,,SKC,0.00,VWS V14.01,2013-01-05 20:24:00,
2013-01-05 15:29:00,41.9,25.6,30.19,West,265,0.0,5.0,52,0.00,,SKC,0.00,VWS V14.01,2013-01-05 20:29:00,
2013-01-05 15:30:00,41.9,25.6,30.19,West,265,0.0,5.0,52,0.00,,SKC,0.00,VWS V14.01,2013-01-05 20:30:00,
2013-01-05 15:34:00,41.9,25.6,30.19,West,265,0.0,1.0,52,0.00,,SKC,0.00,VWS V14.01,2013-01-05 20:34:00,
2013-01-05 15:39:00,41.8,25.5,30.19,West,264,0.0,5.0,52,0.00,,SKC,0.00,VWS V14.01,2013-01-05 20:39:00,
2013-01-05 15:40:00,41.8,25.5,30.19,West,264,0.0,5.0,52,0.00,,SKC,0.00,VWS V14.01,2013-01-05 20:40:00,
2013-01-05 15:44:00,41.6,25.3,30.19,West,260,1.0,4.0,52,0.00,,SKC,0.00,VWS V14.01,2013-01-05 20:44:00,
2013-01-05 15:49:00,41.5,25.2,30.19,West,261,0.0,4.0,52,0.00,,SKC,0.00,VWS V14.01,2013-01-05 20:49:00,
2013-01-05 15:50:00,41.5,25.2,30.19,West,260,0.0,4.0,52,0.00,,SKC,0.00,VWS V14.01,2013-01-05 20:50:00,
2013-01-05 15:54:00,41.5,25.2,30.20,West,260,0.0,2.0,52,0.00,,SKC,0.00,VWS V14.01,2013-01-05 20:54:00,
2013-01-05 15:59:00,41.3,25.5,30.20,West,260,0.0,2.0,53,0.00,,SKC,0.00,VWS V14.01,2013-01-05 20:59:00,
2013-01-05 16:00:00,41.2,25.4,30.20,West,260,0.0,2.0,53,0.00,,SKC,0.00,VWS V14.01,2013-01-05 21:00:00,
2013-01-05 16:05:00,41.1,25.3,30.20,West,260,0.0,0.0,53,0.00,,SKC,0.00,VWS V14.01,2013-01-05 21:05:00,
2013-01-05 16:10:00,40.9,25.5,30.20,West,260,0.0,5.0,54,0.00,,SKC,0.00,VWS V14.01,2013-01-05 21:10:00,
2013-01-05 16:15:00,40.8,25.9,30.19,West,260,0.0,2.0,55,0.00,,SKC,0.00,VWS V14.01,2013-01-05 21:15:00,
2013-01-05 16:20:00,40.5,26.0,30.20,West,260,0.0,2.0,56,0.00,,SKC,0.00,VWS V14.01,2013-01-05 21:20:00,
2013-01-05 16:25:00,40.3,25.9,30.19,West,260,0.0,0.0,56,0.00,,SKC,0.00,VWS V14.01,2013-01-05 21:25:00,
2013-01-05 16:30:00,39.9,25.9,30.20,West,260,0.0,0.0,57,0.00,,SKC,0.00,VWS V14.01,2013-01-05 21:30:00,
2013-01-05 16:35:00,39.6,26.1,30.21,West,260,0.0,2.0,58,0.00,,SKC,0.00,VWS V14.01,2013-01-05 21:35:00,
2013-01-05 16:40:00,39.3,25.8,30.21,West,260,0.0,2.0,58,0.00,,SKC,0.00,VWS V14.01,2013-01-05 21:40:00,
2013-01-05 16:45:00,38.9,25.8,30.21,West,260,0.0,0.0,59,0.00,,SKC,0.00,VWS V14.01,2013-01-05 21:45:00,
2013-01-05 16:50:00,38.5,25.8,30.21,West,260,0.0,0.0,60,0.00,,SKC,0.00,VWS V14.01,2013-01-05 21:50:00,
2013-01-05 16:55:00,37.9,25.3,30.20,West,260,0.0,0.0,60,0.00,,SKC,0.00,VWS V14.01,2013-01-05 21:55:00,
2013-01-05 17:00:00,37.2,25.0,30.21,West,260,0.0,0.0,61,0.00,,SKC,0.00,VWS V14.01,2013-01-05 22:00:00,
2013-01-05 17:05:00,36.6,24.8,30.21,West,260,0.0,0.0,62,0.00,,SKC,0.00,VWS V14.01,2013-01-05 22:05:00,
2013-01-05 17:10:00,36.2,24.5,30.20,West,260,0.0,0.0,62,0.00,,SKC,0.00,VWS V14.01,2013-01-05 22:10:00,
2013-01-05 17:11:00,36.2,24.5,30.20,West,260,0.0,0.0,62,0.00,,SKC,0.00,VWS V14.01,2013-01-05 22:11:00,
2013-01-05 17:16:00,35.6,24.3,30.21,West,260,0.0,0.0,63,0.00,,SKC,0.00,VWS V14.01,2013-01-05 22:16:00,
2013-01-05 17:20:00,34.9,24.3,30.22,West,260,0.0,0.0,65,0.00,,SKC,0.00,VWS V14.01,2013-01-05 22:20:00,
2013-01-05 17:21:00,34.9,24.3,30.22,West,260,0.0,0.0,65,0.00,,SKC,0.00,VWS V14.01,2013-01-05 22:21:00,
2013-01-05 17:26:00,34.4,23.9,30.22,West,260,0.0,0.0,65,0.00,,SKC,0.00,VWS V14.01,2013-01-05 22:26:00,
2013-01-05 17:30:00,33.8,23.3,30.22,West,260,0.0,0.0,65,0.00,,SKC,0.00,VWS V14.01,2013-01-05 22:30:00,
2013-01-05 17:31:00,34.0,23.5,30.22,West,260,0.0,0.0,65,0.00,,SKC,0.00,VWS V14.01,2013-01-05 22:31:00,
2013-01-05 17:36:00,33.2,23.1,30.22,West,260,0.0,0.0,66,0.00,,SKC,0.00,VWS V14.01,2013-01-05 22:36:00,
2013-01-05 17:40:00,32.7,23.0,30.22,West,260,0.0,0.0,67,0.00,,SKC,0.00,VWS V14.01,2013-01-05 22:40:00,
2013-01-05 17:41:00,32.7,23.0,30.22,West,260,0.0,0.0,67,0.00,,SKC,0.00,VWS V14.01,2013-01-05 22:41:00,
2013-01-05 17:46:00,32.2,22.5,30.22,West,260,0.0,0.0,67,0.00,,SKC,0.00,VWS V14.01,2013-01-05 22:46:00,
2013-01-05 17:50:00,31.8,22.1,30.23,West,260,0.0,0.0,67,0.00,,SKC,0.00,VWS V14.01,2013-01-05 22:50:00,
2013-01-05 17:51:00,31.8,22.1,30.23,West,260,0.0,0.0,67,0.00,,SKC,0.00,VWS V14.01,2013-01-05 22:51:00,
2013-01-05 17:56:00,31.3,22.0,30.23,West,260,0.0,0.0,68,0.00,,SKC,0.00,VWS V14.01,2013-01-05 22:56:00,
2013-01-05 18:00:00,31.0,21.7,30.23,West,260,0.0,0.0,68,0.00,,SKC,0.00,VWS V14.01,2013-01-05 23:00:00,
2013-01-05 18:01:00,31.0,21.7,30.23,West,260,0.0,0.0,68,0.00,,SKC,0.00,VWS V14.01,2013-01-05 23:01:00,
2013-01-05 18:06:00,30.7,21.8,30.24,West,260,0.0,0.0,69,0.00,,SKC,0.00,VWS V14.01,2013-01-05 23:06:00,
2013-01-05 18:10:00,30.4,21.5,30.24,West,260,0.0,0.0,69,0.00,,SKC,0.00,VWS V14.01,2013-01-05 23:10:00,
2013-01-05 18:11:00,30.3,21.7,30.24,West,260,0.0,0.0,70,0.00,,SKC,0.00,VWS V14.01,2013-01-05 23:11:00,
2013-01-05 18:16:00,30.1,21.5,30.23,West,260,0.0,0.0,70,0.00,,SKC,0.00,VWS V14.01,2013-01-05 23:16:00,
2013-01-05 18:20:00,30.0,21.8,30.24,West,260,0.0,0.0,71,0.00,,SKC,0.00,VWS V14.01,2013-01-05 23:20:00,
2013-01-05 18:21:00,30.0,21.8,30.23,West,260,0.0,0.0,71,0.00,,SKC,0.00,VWS V14.01,2013-01-05 23:21:00,
2013-01-05 18:26:00,29.8,21.6,30.24,West,260,0.0,0.0,71,0.00,,SKC,0.00,VWS V14.01,2013-01-05 23:26:00,
2013-01-05 18:30:00,29.7,21.5,30.24,West,260,0.0,0.0,71,0.00,,SKC,0.00,VWS V14.01,2013-01-05 23:30:00,
2013-01-05 18:31:00,29.7,21.5,30.24,West,260,0.0,0.0,71,0.00,,SKC,0.00,VWS V14.01,2013-01-05 23:31:00,
2013-01-05 18:36:00,29.5,21.3,30.24,West,260,0.0,0.0,71,0.00,,SKC,0.00,VWS V14.01,2013-01-05 23:36:00,
2013-01-05 18:40:00,29.4,21.5,30.24,West,260,0.0,0.0,72,0.00,,SKC,0.00,VWS V14.01,2013-01-05 23:40:00,
2013-01-05 18:41:00,29.4,21.5,30.24,West,260,0.0,0.0,72,0.00,,SKC,0.00,VWS V14.01,2013-01-05 23:41:00,
2013-01-05 18:47:00,29.3,21.4,30.24,West,260,0.0,0.0,72,0.00,,SKC,0.00,VWS V14.01,2013-01-05 23:47:00,
2013-01-05 18:50:00,29.1,21.5,30.25,West,260,0.0,0.0,73,0.00,,SKC,0.00,VWS V14.01,2013-01-05 23:50:00,
2013-01-05 18:52:00,29.1,21.5,30.25,West,260,0.0,0.0,73,0.00,,SKC,0.00,VWS V14.01,2013-01-05 23:52:00,
2013-01-05 18:57:00,29.0,21.8,30.25,West,260,0.0,0.0,74,0.00,,SKC,0.00,VWS V14.01,2013-01-05 23:57:00,
2013-01-05 19:00:00,29.0,21.8,30.25,West,260,0.0,0.0,74,0.00,,SKC,0.00,VWS V14.01,2013-01-06 00:00:00,
2013-01-05 19:02:00,29.0,22.1,30.25,West,260,0.0,0.0,75,0.00,,SKC,0.00,VWS V14.01,2013-01-06 00:02:00,
2013-01-05 19:07:00,29.0,22.1,30.24,West,260,0.0,0.0,75,0.00,,SKC,0.00,VWS V14.01,2013-01-06 00:07:00,
2013-01-05 19:17:00,29.0,22.4,30.25,West,260,0.0,0.0,76,0.00,,SKC,0.00,VWS V14.01,2013-01-06 00:17:00,
2013-01-05 19:20:00,29.0,22.4,30.24,West,260,0.0,0.0,76,0.00,,SKC,0.00,VWS V14.01,2013-01-06 00:20:00,
2013-01-05 19:22:00,29.1,22.5,30.25,West,260,0.0,0.0,76,0.00,,SKC,0.00,VWS V14.01,2013-01-06 00:22:00,
2013-01-05 19:27:00,29.1,22.8,30.25,West,260,0.0,0.0,77,0.00,,SKC,0.00,VWS V14.01,2013-01-06 00:27:00,
2013-01-05 19:30:00,29.3,23.0,30.25,West,260,0.0,0.0,77,0.00,,SKC,0.00,VWS V14.01,2013-01-06 00:30:00,
2013-01-05 19:32:00,29.3,23.0,30.25,West,260,0.0,0.0,77,0.00,,SKC,0.00,VWS V14.01,2013-01-06 00:32:00,
2013-01-05 19:37:00,29.4,23.1,30.25,West,260,0.0,0.0,77,0.00,,SKC,0.00,VWS V14.01,2013-01-06 00:37:00,
2013-01-05 19:40:00,29.4,23.1,30.24,West,260,0.0,0.0,77,0.00,,SKC,0.00,VWS V14.01,2013-01-06 00:40:00,
2013-01-05 19:42:00,29.4,23.1,30.24,West,260,0.0,0.0,77,0.00,,SKC,0.00,VWS V14.01,2013-01-06 00:42:00,
2013-01-05 19:47:00,29.4,23.1,30.24,West,260,0.0,0.0,77,0.00,,SKC,0.00,VWS V14.01,2013-01-06 00:47:00,
2013-01-05 19:50:00,29.4,23.1,30.24,West,260,0.0,0.0,77,0.00,,SKC,0.00,VWS V14.01,2013-01-06 00:50:00,
2013-01-05 19:52:00,29.4,23.4,30.24,West,260,0.0,0.0,78,0.00,,SKC,0.00,VWS V14.01,2013-01-06 00:52:00,
2013-01-05 19:57:00,29.4,23.4,30.23,West,260,0.0,0.0,78,0.00,,SKC,0.00,VWS V14.01,2013-01-06 00:57:00,
2013-01-05 20:00:00,29.4,23.4,30.23,West,260,0.0,0.0,78,0.00,,SKC,0.00,VWS V14.01,2013-01-06 01:00:00,
2013-01-05 20:02:00,29.3,23.3,30.24,West,260,0.0,0.0,78,0.00,,SKC,0.00,VWS V14.01,2013-01-06 01:02:00,
2013-01-05 20:07:00,29.3,23.3,30.23,West,260,0.0,0.0,78,0.00,,SKC,0.00,VWS V14.01,2013-01-06 01:07:00,
2013-01-05 20:10:00,29.3,23.3,30.23,West,260,0.0,0.0,78,0.00,,SKC,0.00,VWS V14.01,2013-01-06 01:10:00,
2013-01-05 20:12:00,29.3,23.3,30.23,West,260,0.0,0.0,78,0.00,,SKC,0.00,VWS V14.01,2013-01-06 01:12:00,
2013-01-05 20:18:00,29.3,23.3,30.24,West,260,0.0,0.0,78,0.00,,SKC,0.00,VWS V14.01,2013-01-06 01:18:00,
2013-01-05 20:20:00,29.1,23.1,30.24,West,260,0.0,0.0,78,0.00,,SKC,0.00,VWS V14.01,2013-01-06 01:20:00,
2013-01-05 20:23:00,29.1,23.1,30.24,West,260,0.0,0.0,78,0.00,,SKC,0.00,VWS V14.01,2013-01-06 01:23:00,
2013-01-05 20:28:00,29.1,23.1,30.24,West,260,0.0,0.0,78,0.00,,SKC,0.00,VWS V14.01,2013-01-06 01:28:00,
2013-01-05 20:30:00,29.1,23.1,30.24,West,260,0.0,0.0,78,0.00,,SKC,0.00,VWS V14.01,2013-01-06 01:30:00,
2013-01-05 20:33:00,29.0,23.0,30.25,West,260,0.0,0.0,78,0.00,,SKC,0.00,VWS V14.01,2013-01-06 01:33:00,
2013-01-05 20:38:00,29.0,23.0,30.24,West,260,0.0,0.0,78,0.00,,SKC,0.00,VWS V14.01,2013-01-06 01:38:00,
2013-01-05 20:40:00,29.0,23.0,30.23,West,260,0.0,0.0,78,0.00,,SKC,0.00,VWS V14.01,2013-01-06 01:40:00,
2013-01-05 20:43:00,29.0,23.0,30.24,West,260,0.0,0.0,78,0.00,,SKC,0.00,VWS V14.01,2013-01-06 01:43:00,
2013-01-05 20:48:00,28.8,23.1,30.23,West,260,0.0,0.0,79,0.00,,SKC,0.00,VWS V14.01,2013-01-06 01:48:00,
2013-01-05 20:50:00,28.8,23.1,30.24,West,260,0.0,0.0,79,0.00,,SKC,0.00,VWS V14.01,2013-01-06 01:50:00,
2013-01-05 20:53:00,28.8,23.1,30.23,West,260,0.0,0.0,79,0.00,,SKC,0.00,VWS V14.01,2013-01-06 01:53:00,
2013-01-05 20:58:00,28.8,23.1,30.23,West,260,0.0,0.0,79,0.00,,SKC,0.00,VWS V14.01,2013-01-06 01:58:00,
2013-01-05 21:00:00,28.8,23.1,30.23,West,260,0.0,0.0,79,0.00,,SKC,0.00,VWS V14.01,2013-01-06 02:00:00,
2013-01-05 21:03:00,28.8,23.1,30.23,West,260,0.0,0.0,79,0.00,,SKC,0.00,VWS V14.01,2013-01-06 02:03:00,
2013-01-05 21:08:00,28.7,23.0,30.23,West,260,0.0,0.0,79,0.00,,SKC,0.00,VWS V14.01,2013-01-06 02:08:00,
2013-01-05 21:10:00,28.7,23.0,30.23,West,260,0.0,0.0,79,0.00,,SKC,0.00,VWS V14.01,2013-01-06 02:10:00,
2013-01-05 21:13:00,28.7,23.0,30.23,West,260,0.0,0.0,79,0.00,,SKC,0.00,VWS V14.01,2013-01-06 02:13:00,
2013-01-05 21:18:00,28.7,23.0,30.22,West,260,0.0,0.0,79,0.00,,SKC,0.00,VWS V14.01,2013-01-06 02:18:00,
2013-01-05 21:20:00,28.5,22.8,30.23,West,260,0.0,0.0,79,0.00,,SKC,0.00,VWS V14.01,2013-01-06 02:20:00,
2013-01-05 21:23:00,28.5,22.8,30.22,West,260,0.0,0.0,79,0.00,,SKC,0.00,VWS V14.01,2013-01-06 02:23:00,
2013-01-05 21:28:00,28.4,22.7,30.22,West,260,0.0,0.0,79,0.00,,SKC,0.00,VWS V14.01,2013-01-06 02:28:00,
2013-01-05 21:30:00,28.4,22.7,30.22,West,260,0.0,0.0,79,0.00,,SKC,0.00,VWS V14.01,2013-01-06 02:30:00,
2013-01-05 21:34:00,28.4,22.7,30.22,West,260,0.0,0.0,79,0.00,,SKC,0.00,VWS V14.01,2013-01-06 02:34:00,
2013-01-05 21:43:00,28.2,22.5,30.22,West,260,0.0,0.0,79,0.00,,SKC,0.00,VWS V14.01,2013-01-06 02:43:00,
2013-01-05 21:48:00,28.2,22.5,30.22,West,260,0.0,0.0,79,0.00,,SKC,0.00,VWS V14.01,2013-01-06 02:48:00,
2013-01-05 21:53:00,28.1,22.4,30.22,West,260,0.0,0.0,79,0.00,,SKC,0.00,VWS V14.01,2013-01-06 02:53:00,
2013-01-05 21:58:00,28.1,22.4,30.23,West,260,0.0,0.0,79,0.00,,SKC,0.00,VWS V14.01,2013-01-06 02:58:00,
2013-01-05 22:03:00,27.9,22.2,30.22,West,260,0.0,0.0,79,0.00,,SKC,0.00,VWS V14.01,2013-01-06 03:03:00,
2013-01-05 22:09:00,27.8,22.1,30.23,West,260,0.0,0.0,79,0.00,,SKC,0.00,VWS V14.01,2013-01-06 03:09:00,
2013-01-05 22:14:00,27.6,22.0,30.22,West,260,0.0,0.0,79,0.00,,SKC,0.00,VWS V14.01,2013-01-06 03:14:00,
2013-01-05 22:19:00,27.5,21.9,30.22,West,260,0.0,0.0,79,0.00,,SKC,0.00,VWS V14.01,2013-01-06 03:19:00,
2013-01-05 22:24:00,27.3,21.7,30.23,West,260,0.0,0.0,79,0.00,,SKC,0.00,VWS V14.01,2013-01-06 03:24:00,
2013-01-05 22:29:00,27.3,21.7,30.23,West,260,0.0,0.0,79,0.00,,SKC,0.00,VWS V14.01,2013-01-06 03:29:00,
2013-01-05 22:34:00,27.2,21.6,30.22,West,260,0.0,0.0,79,0.00,,SKC,0.00,VWS V14.01,2013-01-06 03:34:00,
2013-01-05 22:39:00,27.0,21.4,30.22,West,260,0.0,0.0,79,0.00,,SKC,0.00,VWS V14.01,2013-01-06 03:39:00,
2013-01-05 22:44:00,26.9,21.3,30.21,West,260,0.0,0.0,79,0.00,,SKC,0.00,VWS V14.01,2013-01-06 03:44:00,
2013-01-05 22:49:00,26.7,21.1,30.21,West,260,0.0,0.0,79,0.00,,SKC,0.00,VWS V14.01,2013-01-06 03:49:00,
2013-01-05 22:54:00,26.7,21.1,30.21,West,260,0.0,0.0,79,0.00,,SKC,0.00,VWS V14.01,2013-01-06 03:54:00,
2013-01-05 22:59:00,26.6,21.3,30.20,West,260,0.0,0.0,80,0.00,,SKC,0.00,VWS V14.01,2013-01-06 03:59:00,
2013-01-05 23:04:00,26.6,21.3,30.20,West,260,0.0,0.0,80,0.00,,SKC,0.00,VWS V14.01,2013-01-06 04:04:00,
2013-01-05 23:09:00,26.6,21.3,30.20,West,260,0.0,0.0,80,0.00,,SKC,0.00,VWS V14.01,2013-01-06 04:09:00,
2013-01-05 23:14:00,26.6,21.3,30.21,West,260,0.0,0.0,80,0.00,,SKC,0.00,VWS V14.01,2013-01-06 04:14:00,
2013-01-05 23:19:00,26.6,21.3,30.20,West,260,0.0,0.0,80,0.00,,SKC,0.00,VWS V14.01,2013-01-06 04:19:00,
2013-01-05 23:24:00,26.6,21.3,30.19,West,260,0.0,0.0,80,0.00,,SKC,0.00,VWS V14.01,2013-01-06 04:24:00,
2013-01-05 23:30:00,26.7,21.4,30.19,West,260,0.0,0.0,80,0.00,,SKC,0.00,VWS V14.01,2013-01-06 04:30:00,
2013-01-05 23:35:00,26.7,21.4,30.18,West,260,0.0,0.0,80,0.00,,SKC,0.00,VWS V14.01,2013-01-06 04:35:00,
2013-01-05 23:40:00,26.9,21.9,30.18,West,260,0.0,0.0,81,0.00,,SKC,0.00,VWS V14.01,2013-01-06 04:40:00,
2013-01-05 23:45:00,26.9,21.9,30.19,West,260,0.0,0.0,81,0.00,,SKC,0.00,VWS V14.01,2013-01-06 04:45:00,
2013-01-05 23:50:00,26.9,21.9,30.18,West,260,0.0,0.0,81,0.00,,SKC,0.00,VWS V14.01,2013-01-06 04:50:00,
2013-01-05 23:55:00,26.9,21.9,30.19,West,260,0.0,0.0,81,0.00,,SKC,0.00,VWS V14.01,2013-01-06 04:55:00,